Time,TemperatureF,DewpointF,PressureIn,WindDirection,WindDirectionDegrees,WindSpeedMPH,WindSpeedGustMPH,Humidity,HourlyPrecipIn,Conditions,Clouds,dailyrainin,SoftwareType,DateUTC
2013-03-13 00:02:00,23.0,14.0,30.40,WNW,303,0.0,-999.0,69,-99.99,,,-99.99,,2013-03-13 06:02:00,
2013-03-13 00:12:00,23.0,14.0,30.40,WNW,303,0.0,-999.0,69,-99.99,,,-99.99,,2013-03-13 06:12:00,
2013-03-13 00:23:00,23.0,12.0,30.41,SW,216,1.0,-999.0,63,-99.99,,,-99.99,,2013-03-13 06:23:00,
2013-03-13 00:32:00,23.0,12.0,30.40,WSW,244,0.0,-999.0,62,-99.99,,,-99.99,,2013-03-13 06:32:00,
2013-03-13 00:42:00,23.0,12.0,30.40,WSW,244,0.0,-999.0,62,-99.99,,,-99.99,,2013-03-13 06:42:00,
2013-03-13 00:52:00,24.0,13.0,30.40,WSW,249,3.0,-999.0,62,-99.99,,,-99.99,,2013-03-13 06:52:00,
2013-03-13 01:02:00,23.0,12.0,30.39,WSW,249,1.0,-999.0,63,-99.99,,,-99.99,,2013-03-13 07:02:00,
2013-03-13 01:12:00,23.0,12.0,30.39,WSW,249,1.0,-999.0,63,-99.99,,,-99.99,,2013-03-13 07:12:00,
2013-03-13 01:22:00,23.0,13.0,30.38,NW,317,1.0,-999.0,64,-99.99,,,-99.99,,2013-03-13 07:22:00,
2013-03-13 01:32:00,23.0,12.0,30.38,NNW,347,0.0,-999.0,63,-99.99,,,-99.99,,2013-03-13 07:32:00,
2013-03-13 01:42:00,23.0,12.0,30.38,NNW,347,0.0,-999.0,63,-99.99,,,-99.99,,2013-03-13 07:42:00,
2013-03-13 01:53:00,23.0,12.0,30.40,NNW,348,2.0,-999.0,63,-99.99,,,-99.99,,2013-03-13 07:53:00,
2013-03-13 02:03:00,23.0,12.0,30.40,NNW,348,0.0,-999.0,63,-99.99,,,-99.99,,2013-03-13 08:03:00,
2013-03-13 02:12:00,23.0,12.0,30.40,NNW,348,0.0,-999.0,63,-99.99,,,-99.99,,2013-03-13 08:12:00,
2013-03-13 02:22:00,22.0,12.0,30.39,WSW,242,1.0,-999.0,64,-99.99,,,-99.99,,2013-03-13 08:22:00,
2013-03-13 02:32:00,23.0,12.0,30.39,WSW,242,0.0,-999.0,62,-99.99,,,-99.99,,2013-03-13 08:32:00,
2013-03-13 02:43:00,23.0,12.0,30.39,WSW,242,0.0,-999.0,62,-99.99,,,-99.99,,2013-03-13 08:43:00,
2013-03-13 02:54:00,23.0,12.0,30.39,West,278,1.0,-999.0,62,-99.99,,,-99.99,,2013-03-13 08:54:00,
2013-03-13 03:02:00,23.0,12.0,30.38,NE,53,0.0,-999.0,62,-99.99,,,-99.99,,2013-03-13 09:02:00,
2013-03-13 03:12:00,23.0,12.0,30.38,NE,53,0.0,-999.0,62,-99.99,,,-99.99,,2013-03-13 09:12:00,
2013-03-13 03:22:00,22.0,12.0,30.39,NE,53,0.0,-999.0,64,-99.99,,,-99.99,,2013-03-13 09:22:00,
2013-03-13 03:32:00,22.0,12.0,30.39,NE,53,0.0,-999.0,64,-99.99,,,-99.99,,2013-03-13 09:32:00,
2013-03-13 03:42:00,22.0,12.0,30.39,NE,53,0.0,-999.0,64,-99.99,,,-99.99,,2013-03-13 09:42:00,
2013-03-13 03:52:00,22.0,12.0,30.37,WSW,257,1.0,-999.0,64,-99.99,,,-99.99,,2013-03-13 09:52:00,
2013-03-13 04:02:00,23.0,13.0,30.37,SW,226,1.0,-999.0,64,-99.99,,,-99.99,,2013-03-13 10:02:00,
2013-03-13 04:12:00,23.0,13.0,30.37,SW,226,1.0,-999.0,64,-99.99,,,-99.99,,2013-03-13 10:12:00,
2013-03-13 04:22:00,23.0,12.0,30.37,North,360,1.0,-999.0,63,-99.99,,,-99.99,,2013-03-13 10:22:00,
2013-03-13 04:32:00,22.0,12.0,30.37,North,360,0.0,-999.0,64,-99.99,,,-99.99,,2013-03-13 10:32:00,
2013-03-13 04:42:00,22.0,12.0,30.37,North,360,0.0,-999.0,64,-99.99,,,-99.99,,2013-03-13 10:42:00,
2013-03-13 04:52:00,23.0,13.0,30.37,NW,306,1.0,-999.0,64,-99.99,,,-99.99,,2013-03-13 10:52:00,
2013-03-13 05:02:00,23.0,12.0,30.37,West,269,1.0,-999.0,63,-99.99,,,-99.99,,2013-03-13 11:02:00,
2013-03-13 05:12:00,23.0,12.0,30.37,West,269,1.0,-999.0,63,-99.99,,,-99.99,,2013-03-13 11:12:00,
2013-03-13 05:22:00,24.0,13.0,30.37,South,186,1.0,-999.0,63,-99.99,,,-99.99,,2013-03-13 11:22:00,
2013-03-13 05:32:00,24.0,13.0,30.37,SSE,153,2.0,-999.0,63,-99.99,,,-99.99,,2013-03-13 11:32:00,
2013-03-13 05:42:00,24.0,13.0,30.37,SSE,153,2.0,-999.0,63,-99.99,,,-99.99,,2013-03-13 11:42:00,
2013-03-13 05:52:00,24.0,13.0,30.39,South,191,2.0,-999.0,63,-99.99,,,-99.99,,2013-03-13 11:52:00,
2013-03-13 06:02:00,24.0,14.0,30.40,SW,225,3.0,-999.0,64,-99.99,,,-99.99,,2013-03-13 12:02:00,
2013-03-13 06:12:00,24.0,14.0,30.40,SW,225,3.0,-999.0,64,-99.99,,,-99.99,,2013-03-13 12:12:00,
2013-03-13 06:22:00,24.0,14.0,30.41,SSW,193,2.0,-999.0,64,-99.99,,,-99.99,,2013-03-13 12:22:00,
2013-03-13 06:32:00,24.0,14.0,30.41,SSW,202,2.0,-999.0,64,-99.99,,,-99.99,,2013-03-13 12:32:00,
2013-03-13 06:42:00,24.0,14.0,30.41,SSW,202,2.0,-999.0,64,-99.99,,,-99.99,,2013-03-13 12:42:00,
2013-03-13 06:53:00,25.0,13.0,30.42,SSW,192,3.0,-999.0,59,-99.99,,,-99.99,,2013-03-13 12:53:00,
2013-03-13 07:02:00,25.0,12.0,30.41,SSW,192,2.0,-999.0,58,-99.99,,,-99.99,,2013-03-13 13:02:00,
2013-03-13 07:11:00,25.0,12.0,30.41,SSW,192,2.0,-999.0,58,-99.99,,,-99.99,,2013-03-13 13:11:00,
2013-03-13 07:22:00,25.0,13.0,30.42,SSW,206,3.0,-999.0,59,-99.99,,,-99.99,,2013-03-13 13:22:00,
2013-03-13 07:33:00,25.0,13.0,30.42,SW,235,1.0,-999.0,59,-99.99,,,-99.99,,2013-03-13 13:33:00,
2013-03-13 07:42:00,25.0,13.0,30.42,SW,235,1.0,-999.0,59,-99.99,,,-99.99,,2013-03-13 13:42:00,
2013-03-13 07:52:00,25.0,13.0,30.43,West,263,1.0,-999.0,60,-99.99,,,-99.99,,2013-03-13 13:52:00,
2013-03-13 08:02:00,26.0,14.0,30.43,WSW,243,2.0,-999.0,59,-99.99,,,-99.99,,2013-03-13 14:02:00,
2013-03-13 08:12:00,26.0,14.0,30.43,WSW,243,2.0,-999.0,59,-99.99,,,-99.99,,2013-03-13 14:12:00,
2013-03-13 08:22:00,26.0,13.0,30.45,WSW,255,2.0,-999.0,57,-99.99,,,-99.99,,2013-03-13 14:22:00,
2013-03-13 08:33:00,26.0,13.0,30.45,SE,139,2.0,-999.0,57,-99.99,,,-99.99,,2013-03-13 14:33:00,
2013-03-13 08:42:00,26.0,13.0,30.45,SE,139,2.0,-999.0,57,-99.99,,,-99.99,,2013-03-13 14:42:00,
2013-03-13 08:52:00,27.0,13.0,30.45,WSW,257,3.0,-999.0,55,-99.99,,,-99.99,,2013-03-13 14:52:00,
2013-03-13 09:03:00,28.0,13.0,30.46,WNW,290,2.0,-999.0,53,-99.99,,,-99.99,,2013-03-13 15:03:00,
2013-03-13 09:12:00,28.0,13.0,30.46,WNW,290,2.0,-999.0,53,-99.99,,,-99.99,,2013-03-13 15:12:00,
2013-03-13 09:22:00,28.0,13.0,30.46,WNW,290,2.0,-999.0,53,-99.99,,,-99.99,,2013-03-13 15:22:00,
2013-03-13 09:32:00,30.0,13.0,30.46,SSW,196,2.0,-999.0,49,-99.99,,,-99.99,,2013-03-13 15:32:00,
2013-03-13 09:42:00,30.0,13.0,30.46,SSW,196,2.0,-999.0,49,-99.99,,,-99.99,,2013-03-13 15:42:00,
2013-03-13 09:53:00,31.0,13.0,30.46,West,273,2.0,-999.0,46,-99.99,,,-99.99,,2013-03-13 15:53:00,
2013-03-13 10:03:00,33.0,14.0,30.47,NNW,346,1.0,-999.0,45,-99.99,,,-99.99,,2013-03-13 16:03:00,
2013-03-13 10:12:00,33.0,14.0,30.47,NNW,346,1.0,-999.0,45,-99.99,,,-99.99,,2013-03-13 16:12:00,
2013-03-13 10:22:00,34.0,15.0,30.47,SSW,199,2.0,-999.0,45,-99.99,,,-99.99,,2013-03-13 16:22:00,
2013-03-13 10:32:00,34.0,14.0,30.47,SSW,209,2.0,-999.0,43,-99.99,,,-99.99,,2013-03-13 16:32:00,
2013-03-13 10:42:00,34.0,14.0,30.47,SSW,209,2.0,-999.0,43,-99.99,,,-99.99,,2013-03-13 16:42:00,
2013-03-13 10:52:00,35.0,15.0,30.47,East,96,2.0,-999.0,44,-99.99,,,-99.99,,2013-03-13 16:52:00,
2013-03-13 11:02:00,36.0,16.0,30.47,ENE,68,3.0,-999.0,43,-99.99,,,-99.99,,2013-03-13 17:02:00,
2013-03-13 11:12:00,36.0,16.0,30.47,ENE,68,3.0,-999.0,43,-99.99,,,-99.99,,2013-03-13 17:12:00,
2013-03-13 11:22:00,36.0,15.0,30.46,SSW,197,3.0,-999.0,42,-99.99,,,-99.99,,2013-03-13 17:22:00,
2013-03-13 11:32:00,37.0,16.0,30.47,South,169,3.0,-999.0,42,-99.99,,,-99.99,,2013-03-13 17:32:00,
2013-03-13 11:42:00,37.0,16.0,30.47,South,169,3.0,-999.0,42,-99.99,,,-99.99,,2013-03-13 17:42:00,
2013-03-13 11:53:00,37.0,16.0,30.47,East,82,3.0,-999.0,42,-99.99,,,-99.99,,2013-03-13 17:53:00,
2013-03-13 12:02:00,38.0,17.0,30.47,ENE,74,2.0,-999.0,42,-99.99,,,-99.99,,2013-03-13 18:02:00,
2013-03-13 12:12:00,38.0,17.0,30.47,ENE,74,2.0,-999.0,42,-99.99,,,-99.99,,2013-03-13 18:12:00,
2013-03-13 12:22:00,39.0,18.0,30.46,SSW,202,2.0,-999.0,42,-99.99,,,-99.99,,2013-03-13 18:22:00,
2013-03-13 12:33:00,40.0,17.0,30.47,ESE,117,2.0,-999.0,39,-99.99,,,-99.99,,2013-03-13 18:33:00,
2013-03-13 12:42:00,40.0,17.0,30.47,ESE,117,2.0,-999.0,39,-99.99,,,-99.99,,2013-03-13 18:42:00,
2013-03-13 12:52:00,39.0,16.0,30.47,WSW,245,3.0,-999.0,38,-99.99,,,-99.99,,2013-03-13 18:52:00,
2013-03-13 13:02:00,40.0,16.0,30.47,SSE,166,2.0,-999.0,38,-99.99,,,-99.99,,2013-03-13 19:02:00,
2013-03-13 13:12:00,40.0,16.0,30.47,SSE,166,2.0,-999.0,38,-99.99,,,-99.99,,2013-03-13 19:12:00,
2013-03-13 13:22:00,41.0,17.0,30.46,West,263,2.0,-999.0,37,-99.99,,,-99.99,,2013-03-13 19:22:00,
2013-03-13 13:32:00,40.0,16.0,30.46,SSW,193,1.0,-999.0,37,-99.99,,,-99.99,,2013-03-13 19:32:00,
2013-03-13 13:43:00,40.0,16.0,30.46,SSW,193,1.0,-999.0,37,-99.99,,,-99.99,,2013-03-13 19:43:00,
2013-03-13 13:53:00,41.0,17.0,30.46,East,83,1.0,-999.0,38,-99.99,,,-99.99,,2013-03-13 19:53:00,
2013-03-13 14:12:00,38.0,16.0,30.45,West,270,1.0,-999.0,40,-99.99,,,-99.99,,2013-03-13 20:12:00,
2013-03-13 14:22:00,38.0,15.0,30.45,SW,217,1.0,-999.0,39,-99.99,,,-99.99,,2013-03-13 20:22:00,
2013-03-13 14:32:00,38.0,14.0,30.44,SSW,200,2.0,-999.0,37,-99.99,,,-99.99,,2013-03-13 20:32:00,
2013-03-13 14:42:00,38.0,14.0,30.44,SSW,200,2.0,-999.0,37,-99.99,,,-99.99,,2013-03-13 20:42:00,
2013-03-13 14:52:00,40.0,16.0,30.44,WSW,246,0.0,-999.0,37,-99.99,,,-99.99,,2013-03-13 20:52:00,
2013-03-13 15:02:00,40.0,16.0,30.45,SSW,195,3.0,-999.0,37,-99.99,,,-99.99,,2013-03-13 21:02:00,
2013-03-13 15:12:00,40.0,16.0,30.45,SSW,195,3.0,-999.0,37,-99.99,,,-99.99,,2013-03-13 21:12:00,
2013-03-13 15:22:00,40.0,16.0,30.44,WNW,295,2.0,-999.0,37,-99.99,,,-99.99,,2013-03-13 21:22:00,
2013-03-13 15:33:00,40.0,15.0,30.42,ESE,105,2.0,-999.0,35,-99.99,,,-99.99,,2013-03-13 21:33:00,
2013-03-13 15:42:00,40.0,15.0,30.42,ESE,105,2.0,-999.0,35,-99.99,,,-99.99,,2013-03-13 21:42:00,
2013-03-13 15:52:00,41.0,15.0,30.43,SW,219,2.0,-999.0,35,-99.99,,,-99.99,,2013-03-13 21:52:00,
2013-03-13 16:02:00,40.0,16.0,30.43,SSW,211,2.0,-999.0,37,-99.99,,,-99.99,,2013-03-13 22:02:00,
2013-03-13 16:12:00,40.0,16.0,30.43,SSW,211,2.0,-999.0,37,-99.99,,,-99.99,,2013-03-13 22:12:00,
2013-03-13 16:22:00,39.0,15.0,30.43,ESE,123,1.0,-999.0,37,-99.99,,,-99.99,,2013-03-13 22:22:00,
2013-03-13 16:32:00,38.0,15.0,30.43,SSW,202,1.0,-999.0,38,-99.99,,,-99.99,,2013-03-13 22:32:00,
2013-03-13 16:42:00,38.0,15.0,30.43,SSW,202,1.0,-999.0,38,-99.99,,,-99.99,,2013-03-13 22:42:00,
2013-03-13 16:52:00,38.0,13.0,30.42,SE,134,2.0,-999.0,36,-99.99,,,-99.99,,2013-03-13 22:52:00,
2013-03-13 17:02:00,37.0,14.0,30.43,West,262,1.0,-999.0,38,-99.99,,,-99.99,,2013-03-13 23:02:00,
2013-03-13 17:12:00,37.0,14.0,30.43,West,262,1.0,-999.0,38,-99.99,,,-99.99,,2013-03-13 23:12:00,
2013-03-13 17:22:00,37.0,15.0,30.44,SSW,192,1.0,-999.0,40,-99.99,,,-99.99,,2013-03-13 23:22:00,
2013-03-13 17:32:00,38.0,15.0,30.45,SSW,200,0.0,-999.0,39,-99.99,,,-99.99,,2013-03-13 23:32:00,
2013-03-13 17:42:00,38.0,15.0,30.45,SSW,200,0.0,-999.0,39,-99.99,,,-99.99,,2013-03-13 23:42:00,
2013-03-13 17:52:00,37.0,14.0,30.44,SSW,210,1.0,-999.0,39,-99.99,,,-99.99,,2013-03-13 23:52:00,
2013-03-13 18:02:00,36.0,13.0,30.44,SW,225,1.0,-999.0,39,-99.99,,,-99.99,,2013-03-14 00:02:00,
2013-03-13 18:12:00,36.0,13.0,30.44,SW,225,1.0,-999.0,39,-99.99,,,-99.99,,2013-03-14 00:12:00,
2013-03-13 18:22:00,36.0,14.0,30.43,SW,226,0.0,-999.0,40,-99.99,,,-99.99,,2013-03-14 00:22:00,
2013-03-13 18:32:00,35.0,15.0,30.44,SW,226,0.0,-999.0,43,-99.99,,,-99.99,,2013-03-14 00:32:00,
2013-03-13 18:42:00,35.0,15.0,30.44,SW,226,0.0,-999.0,43,-99.99,,,-99.99,,2013-03-14 00:42:00,
2013-03-13 18:52:00,35.0,15.0,30.44,SW,226,0.0,-999.0,44,-99.99,,,-99.99,,2013-03-14 00:52:00,
2013-03-13 19:02:00,34.0,14.0,30.45,ESE,119,1.0,-999.0,43,-99.99,,,-99.99,,2013-03-14 01:02:00,
2013-03-13 19:12:00,34.0,14.0,30.45,ESE,119,1.0,-999.0,43,-99.99,,,-99.99,,2013-03-14 01:12:00,
2013-03-13 19:22:00,33.0,15.0,30.45,ESE,111,1.0,-999.0,46,-99.99,,,-99.99,,2013-03-14 01:22:00,
2013-03-13 19:32:00,31.0,13.0,30.46,ESE,103,1.0,-999.0,46,-99.99,,,-99.99,,2013-03-14 01:32:00,
2013-03-13 19:42:00,31.0,13.0,30.46,ESE,103,1.0,-999.0,46,-99.99,,,-99.99,,2013-03-14 01:42:00,
2013-03-13 19:53:00,31.0,13.0,30.46,East,88,2.0,-999.0,47,-99.99,,,-99.99,,2013-03-14 01:53:00,
2013-03-13 20:02:00,30.0,13.0,30.46,East,85,1.0,-999.0,48,-99.99,,,-99.99,,2013-03-14 02:02:00,
2013-03-13 20:12:00,30.0,13.0,30.46,East,85,1.0,-999.0,48,-99.99,,,-99.99,,2013-03-14 02:12:00,
2013-03-13 20:22:00,29.0,13.0,30.46,East,85,0.0,-999.0,50,-99.99,,,-99.99,,2013-03-14 02:22:00,
2013-03-13 20:32:00,28.0,12.0,30.47,East,85,0.0,-999.0,50,-99.99,,,-99.99,,2013-03-14 02:32:00,
2013-03-13 20:42:00,28.0,12.0,30.47,East,85,0.0,-999.0,50,-99.99,,,-99.99,,2013-03-14 02:42:00,
2013-03-13 20:52:00,28.0,12.0,30.47,East,85,0.0,-999.0,50,-99.99,,,-99.99,,2013-03-14 02:52:00,
2013-03-13 21:02:00,27.0,12.0,30.47,East,85,0.0,-999.0,52,-99.99,,,-99.99,,2013-03-14 03:02:00,
2013-03-13 21:12:00,27.0,12.0,30.47,East,85,0.0,-999.0,52,-99.99,,,-99.99,,2013-03-14 03:12:00,
2013-03-13 21:23:00,27.0,12.0,30.47,East,85,1.0,-999.0,52,-99.99,,,-99.99,,2013-03-14 03:23:00,
2013-03-13 21:32:00,28.0,14.0,30.47,East,85,2.0,-999.0,54,-99.99,,,-99.99,,2013-03-14 03:32:00,
2013-03-13 21:42:00,28.0,14.0,30.47,East,85,2.0,-999.0,54,-99.99,,,-99.99,,2013-03-14 03:42:00,
2013-03-13 21:52:00,28.0,13.0,30.47,East,85,1.0,-999.0,52,-99.99,,,-99.99,,2013-03-14 03:52:00,
2013-03-13 22:12:00,28.0,13.0,30.47,East,86,1.0,-999.0,52,-99.99,,,-99.99,,2013-03-14 04:12:00,
2013-03-13 22:22:00,28.0,12.0,30.47,East,86,0.0,-999.0,51,-99.99,,,-99.99,,2013-03-14 04:22:00,
2013-03-13 22:32:00,28.0,13.0,30.48,East,86,1.0,-999.0,53,-99.99,,,-99.99,,2013-03-14 04:32:00,
2013-03-13 22:42:00,28.0,13.0,30.48,East,86,1.0,-999.0,53,-99.99,,,-99.99,,2013-03-14 04:42:00,
2013-03-13 22:52:00,28.0,13.0,30.47,East,85,2.0,-999.0,52,-99.99,,,-99.99,,2013-03-14 04:52:00,
2013-03-13 23:02:00,28.0,13.0,30.47,East,82,3.0,-999.0,52,-99.99,,,-99.99,,2013-03-14 05:02:00,
2013-03-13 23:12:00,28.0,13.0,30.47,East,82,3.0,-999.0,52,-99.99,,,-99.99,,2013-03-14 05:12:00,
2013-03-13 23:22:00,29.0,14.0,30.48,East,86,2.0,-999.0,54,-99.99,,,-99.99,,2013-03-14 05:22:00,
2013-03-13 23:33:00,29.0,14.0,30.48,East,86,2.0,-999.0,53,-99.99,,,-99.99,,2013-03-14 05:33:00,
2013-03-13 23:42:00,29.0,14.0,30.48,East,86,2.0,-999.0,53,-99.99,,,-99.99,,2013-03-14 05:42:00,
2013-03-13 23:53:00,29.0,13.0,30.47,East,94,3.0,-999.0,51,-99.99,,,-99.99,,2013-03-14 05:53:00,